Wind_Speed
45 45 44 43 43 43 42 42 42 42 41 41 41 41 41 41 41 42 42 43 43 43 44 45 45 46 47 48 49 50 50 49 49 48 48 49 50 51 51 52 52 52 52
45 44 44 44 43 43 42 42 42 42 42 42 42 42 42 43 43 43 44 44 44 44 45 45 46 47 48 48 49 50 49 49 49 48 47 49 50 50 51 51 51 51 51
44 43 43 43 42 42 42 42 42 42 42 42 43 43 43 44 44 45 45 45 45 45 46 46 47 47 48 48 49 48 48 49 49 48 47 48 49 50 50 50 50 50 50
43 43 43 42 42 42 42 42 42 42 43 43 43 44 44 44 45 46 46 46 46 46 47 47 48 48 48 48 47 47 48 48 47 47 47 48 48 48 48 48 48 49 49
43 43 43 43 42 42 41 42 42 43 43 43 43 44 45 45 46 46 46 46 47 47 48 47 47 48 48 47 47 47 47 47 46 47 48 48 47 48 48 48 48 47 45
43 43 43 43 42 42 42 42 42 42 43 43 43 44 44 45 46 46 47 47 47 48 47 47 47 46 46 46 46 47 47 46 46 47 47 47 47 48 48 47 46 44 42
43 42 42 42 42 42 42 42 43 43 43 44 44 44 44 44 45 46 47 47 47 47 46 46 46 46 46 46 47 47 47 46 47 46 46 46 46 46 46 45 44 42 40
41 41 42 42 42 42 42 43 43 44 44 44 43 44 44 44 45 45 46 46 46 46 46 45 44 44 45 46 46 46 45 45 45 45 45 44 45 45 44 44 42 39 37
42 41 42 42 42 42 43 44 44 44 44 44 44 43 43 44 44 44 44 45 45 45 44 44 44 44 44 45 45 44 44 43 43 43 43 43 43 43 42 41 39 37 36
42 42 42 42 42 43 43 43 43 43 44 44 44 44 44 44 44 44 44 45 44 44 43 43 43 44 43 44 44 42 42 41 41 41 42 42 42 41 40 38 36 36 35
41 41 41 41 42 42 42 42 41 42 42 42 42 42 43 43 43 43 43 43 43 42 42 42 42 42 42 43 42 41 41 40 40 40 40 40 39 38 37 36 35 34 33
41 41 41 41 41 41 40 40 40 40 40 40 41 41 41 41 42 42 42 42 41 41 41 41 42 41 41 41 41 40 39 39 39 38 38 37 36 35 34 34 33 32 31
42 41 40 40 40 39 38 38 39 39 39 39 39 40 40 40 40 40 40 40 39 39 40 41 40 40 41 40 39 38 38 37 36 36 34 34 33 33 32 31 30 29 29
40 40 40 40 40 39 39 38 38 38 38 38 39 39 39 39 39 38 38 38 38 38 37 38 38 39 39 38 37 37 36 35 33 33 32 31 31 30 29 29 28 27 26
38 38 39 39 39 39 38 38 38 39 38 38 39 38 37 37 37 36 36 35 35 36 35 35 35 36 36 36 35 34 33 32 31 31 30 30 28 28 27 27 27 26 24
36 36 37 36 36 37 37 38 37 38 37 37 37 37 36 36 36 36 35 35 34 34 34 34 33 34 34 33 32 31 30 30 29 29 28 27 26 26 25 25 25 24 21
35 35 35 35 35 35 35 35 35 36 36 36 36 35 35 35 35 35 35 34 34 33 33 32 32 31 31 29 28 28 27 27 26 25 25 25 24 23 23 23 23 21 19
33 33 33 33 33 33 33 34 34 35 35 35 35 34 34 34 35 35 35 35 34 33 33 32 31 30 28 27 26 25 24 24 23 23 23 22 22 21 22 21 21 19 17
32 32 32 32 33 33 34 34 34 34 34 34 34 34 34 34 34 34 34 33 32 32 32 31 30 29 27 26 25 24 23 22 21 20 20 20 20 20 20 20 19 17 16
33 32 32 33 33 33 33 33 33 32 32 32 32 32 32 32 32 32 31 31 30 30 29 29 28 27 26 25 23 22 21 20 19 19 19 19 19 19 18 17 16 14 14
32 33 33 33 33 32 32 32 31 31 31 30 30 29 29 30 29 29 28 28 27 27 26 26 25 24 23 22 21 20 18 17 17 18 18 17 17 16 15 14 14 13 13
30 31 31 31 31 31 30 30 29 29 29 28 28 28 27 27 27 27 26 25 24 23 23 22 21 21 20 19 18 17 16 16 15 15 15 15 14 13 13 13 12 12 12
29 30 30 29 28 28 28 28 27 26 26 26 25 25 24 24 24 24 23 23 22 21 20 20 18 17 17 16 15 14 14 13 13 13 13 12 11 12 12 12 11 11 11
28 28 28 28 27 26 26 26 25 25 24 24 23 23 22 22 22 21 21 21 21 20 19 18 17 16 15 14 13 13 12 11 11 10 10 9 9 10 10 10 10 10 10
27 27 27 26 26 26 25 24 24 24 24 23 22 22 21 20 20 20 20 19 18 17 17 16 16 15 14 13 13 12 12 11 10 9 8 8 8 8 8 8 8 7 7
25 25 25 25 25 25 24 24 23 23 23 22 22 21 20 20 19 19 18 17 16 16 15 14 14 13 13 12 11 10 10 9 8 7 6 6 6 6 6 6 6 5 5
Wind_Direction
245 247 248 249 250 252 254 256 258 260 262 264 266 268 271 274 277 280 283 286 288 290 292 295 296 297 299 301 303 304 305 306 307 309 309 309 310 311 311 312 312 312 312
246 248 249 251 252 254 255 256 258 260 262 264 266 268 271 273 277 280 282 285 288 290 292 294 296 298 299 300 302 304 305 306 307 309 309 309 310 311 312 313 313 313 313
246 248 250 251 253 253 255 257 258 260 262 263 266 268 271 273 276 279 282 284 286 289 291 293 295 297 298 300 301 303 304 306 307 308 309 309 310 311 312 314 315 315 316
247 249 249 251 252 253 255 257 258 260 261 263 265 268 270 273 276 279 281 284 286 287 290 292 294 296 297 299 300 302 303 305 306 307 309 310 311 312 313 315 316 317 317
247 249 249 250 252 254 256 257 259 260 262 264 266 268 271 273 276 278 280 283 285 287 289 291 293 295 296 298 300 301 303 304 305 307 308 310 311 312 313 314 317 318 318
248 249 250 251 253 254 256 258 260 262 263 265 267 269 271 274 276 278 280 282 285 286 288 290 291 294 296 297 300 301 302 303 305 306 308 310 311 312 313 315 317 319 318
249 250 251 252 253 254 256 258 260 262 263 266 268 270 272 274 276 278 280 282 284 286 288 289 291 293 294 295 298 300 301 302 304 306 307 310 311 313 315 316 318 318 319
248 250 252 253 253 254 257 260 261 262 263 266 269 271 272 274 276 279 280 282 284 285 287 288 291 293 294 295 297 298 300 302 304 305 307 309 311 312 314 316 318 319 320
248 250 253 253 254 257 259 260 261 263 265 266 269 270 271 274 277 279 281 283 284 285 286 288 290 292 295 296 298 298 299 301 303 305 307 309 310 312 314 316 317 318 320
249 251 253 254 256 258 260 261 263 265 266 267 269 270 272 274 277 279 281 283 284 284 286 287 289 291 293 296 297 297 299 301 302 304 306 308 309 311 314 315 316 318 320
249 251 253 255 256 258 259 260 263 265 266 267 269 271 273 275 278 281 282 283 284 284 285 287 289 291 292 295 296 296 298 300 301 303 305 307 308 310 312 314 316 318 320
250 252 253 254 256 258 259 261 262 264 265 267 269 272 275 276 278 280 282 282 283 284 286 288 290 291 293 294 294 295 297 299 301 303 304 305 307 309 311 314 317 319 320
251 253 253 255 257 258 259 260 262 264 266 268 270 273 275 277 279 281 281 282 283 285 287 288 290 291 293 295 294 294 296 298 300 302 304 305 307 309 311 315 318 319 319
252 254 255 256 257 258 259 260 262 264 267 269 272 274 276 277 279 280 281 283 283 285 287 289 290 292 294 295 294 295 295 297 298 300 301 304 308 310 313 316 318 318 318
253 254 256 256 257 258 259 261 263 266 267 270 272 273 275 277 278 279 280 281 283 284 285 288 291 293 295 295 294 295 297 297 297 298 300 303 307 310 312 315 317 318 317
252 253 255 257 258 259 261 262 263 265 267 269 270 272 274 275 275 277 279 280 282 283 284 287 290 293 295 294 293 294 296 297 298 299 301 303 306 309 312 316 318 318 318
252 253 255 257 259 261 261 261 263 265 267 269 271 272 273 274 275 277 279 281 281 283 285 288 291 293 295 294 293 295 295 296 298 299 300 303 306 309 314 318 320 319 319
252 253 255 257 258 261 262 263 264 266 268 270 271 272 272 274 276 278 280 281 281 283 285 287 290 292 293 292 292 293 295 296 297 299 301 303 306 310 313 317 321 322 322
252 254 257 259 261 263 264 265 267 269 270 270 272 272 273 274 276 278 279 279 280 281 283 285 287 289 289 289 290 291 293 295 296 297 299 302 306 309 312 316 319 321 324
253 256 259 260 261 263 265 266 268 270 270 271 271 272 273 274 275 277 278 278 278 280 281 284 286 287 287 287 288 289 291 293 294 294 296 300 304 307 311 316 319 323 327
253 256 258 260 261 263 265 266 268 270 270 270 270 271 272 273 274 275 276 277 278 278 280 283 285 285 285 286 286 286 289 292 292 293 297 300 304 307 312 317 320 322 325
254 256 258 260 261 264 265 267 268 269 269 269 269 270 271 271 271 271 273 275 276 278 279 282 283 284 283 282 282 284 286 289 291 295 297 299 303 309 314 319 321 324 326
254 255 258 259 261 262 264 266 266 268 269 269 269 269 269 269 270 271 271 272 273 275 278 280 280 282 282 280 279 280 283 285 291 297 298 298 303 310 315 318 320 324 330
254 255 256 257 258 260 263 264 265 266 267 267 267 267 268 269 269 269 269 270 270 271 275 276 274 276 276 273 272 274 278 283 289 294 297 298 303 310 317 322 323 326 332
254 254 254 255 257 259 261 263 264 264 263 263 264 265 266 267 268 269 270 269 269 269 270 269 268 270 273 270 270 272 274 277 282 288 292 297 305 313 317 323 326 332 340
252 251 252 254 256 258 260 261 261 261 260 260 261 261 263 265 266 266 265 265 266 267 266 264 265 269 271 269 268 268 268 269 272 276 281 293 307 316 319 322 327 336 352
Height
5702 5705 5708 5711 5714 5716 5718 5720 5722 5723 5724 5725 5726 5726 5726 5726 5725 5724 5723 5721 5719 5717 5714 5711 5707 5703 5699 5694 5689 5684 5679 5673 5669 5664 5656 5650 5643 5637 5630 5622 5615 5608 5600
5692 5695 5698 5701 5704 5706 5708 5710 5712 5713 5714 5716 5716 5717 5717 5716 5716 5715 5714 5712 5710 5707 5705 5701 5697 5693 5689 5684 5679 5674 5669 5663 5658 5653 5647 5640 5633 5627 5620 5613 5605 5597 5589
5683 5686 5689 5691 5694 5696 5698 5700 5702 5703 5704 5705 5706 5707 5707 5706 5706 5705 5704 5702 5700 5697 5695 5691 5688 5683 5679 5674 5669 5664 5659 5653 5647 5642 5637 5630 5624 5617 5611 5603 5595 5587 5579
5674 5676 5679 5682 5684 5686 5688 5690 5691 5693 5694 5695 5696 5696 5696 5696 5695 5694 5693 5692 5689 5687 5684 5681 5677 5673 5669 5664 5659 5654 5649 5644 5638 5633 5627 5621 5615 5608 5601 5595 5588 5579 5570
5664 5667 5669 5672 5674 5676 5678 5680 5681 5683 5684 5685 5685 5686 5686 5685 5685 5683 5682 5681 5679 5676 5673 5670 5666 5662 5658 5653 5649 5644 5639 5634 5629 5624 5618 5612 5606 5600 5593 5585 5578 5571 5563
5654 5657 5659 5662 5664 5666 5668 5670 5671 5672 5673 5674 5675 5675 5675 5675 5674 5672 5671 5670 5667 5665 5663 5659 5656 5652 5648 5643 5638 5633 5628 5624 5619 5614 5609 5603 5597 5590 5584 5576 5569 5563 5557
5645 5647 5650 5652 5654 5656 5658 5660 5661 5662 5663 5664 5664 5664 5664 5664 5662 5661 5660 5658 5656 5654 5651 5649 5645 5641 5638 5634 5629 5624 5619 5614 5609 5605 5599 5594 5588 5582 5576 5570 5562 5554 5548
5635 5637 5639 5642 5644 5646 5648 5649 5650 5652 5653 5653 5654 5654 5653 5653 5651 5650 5648 5647 5645 5643 5640 5638 5635 5631 5627 5623 5619 5614 5609 5605 5600 5595 5591 5585 5578 5572 5567 5561 5554 5548 5542
5625 5627 5629 5632 5634 5636 5637 5639 5640 5641 5642 5643 5643 5643 5643 5642 5641 5639 5637 5636 5634 5632 5629 5627 5624 5621 5617 5613 5610 5606 5601 5596 5591 5586 5581 5576 5570 5564 5559 5554 5548 5542 5537
5615 5617 5619 5621 5623 5625 5626 5628 5629 5630 5631 5631 5632 5632 5632 5631 5630 5629 5627 5625 5624 5621 5619 5616 5613 5610 5606 5603 5599 5596 5592 5588 5583 5578 5573 5568 5562 5557 5551 5546 5541 5536 5531
5605 5607 5609 5610 5612 5614 5615 5617 5618 5619 5620 5620 5621 5621 5621 5620 5619 5618 5616 5614 5612 5610 5608 5606 5603 5599 5596 5593 5589 5586 5582 5578 5574 5570 5566 5560 5555 5550 5545 5540 5535 5530 5525
5595 5596 5598 5600 5602 5603 5604 5606 5607 5608 5609 5610 5610 5610 5610 5609 5608 5607 5605 5603 5601 5600 5598 5595 5592 5589 5586 5582 5579 5576 5573 5569 5566 5562 5558 5553 5549 5544 5539 5534 5529 5524 5519
5584 5586 5588 5590 5591 5593 5594 5596 5597 5598 5599 5599 5600 5600 5599 5598 5597 5596 5594 5592 5591 5589 5587 5584 5582 5579 5576 5573 5570 5567 5564 5561 5557 5554 5550 5546 5542 5538 5533 5529 5524 5519 5515
5574 5576 5578 5579 5581 5583 5584 5586 5587 5588 5589 5589 5589 5589 5589 5588 5587 5586 5584 5582 5581 5579 5577 5575 5572 5569 5567 5564 5561 5558 5555 5552 5549 5546 5543 5540 5536 5532 5528 5524 5519 5515 5511
5564 5566 5567 5569 5571 5573 5574 5576 5577 5578 5578 5579 5579 5579 5578 5578 5577 5576 5574 5573 5572 5570 5568 5566 5563 5561 5558 5555 5553 5550 5547 5545 5542 5539 5536 5534 5531 5527 5523 5519 5515 5510 5506
5555 5556 5558 5560 5561 5563 5564 5565 5566 5567 5568 5568 5568 5568 5568 5568 5567 5566 5565 5564 5562 5561 5559 5557 5555 5553 5550 5548 5545 5543 5541 5538 5536 5533 5531 5528 5525 5522 5519 5514 5510 5506 5503
5545 5547 5549 5550 5552 5553 5554 5555 5556 5557 5558 5558 5558 5558 5558 5557 5557 5556 5555 5554 5553 5552 5550 5549 5547 5545 5542 5540 5538 5536 5534 5532 5530 5528 5525 5523 5520 5517 5514 5511 5507 5503 5500
5536 5538 5540 5541 5543 5544 5545 5546 5547 5547 5548 5548 5548 5547 5547 5547 5547 5547 5546 5545 5544 5543 5542 5541 5539 5537 5535 5534 5532 5530 5528 5526 5524 5522 5520 5518 5516 5513 5510 5507 5504 5501 5497
5528 5530 5531 5533 5534 5535 5536 5537 5537 5537 5538 5538 5538 5538 5538 5538 5537 5537 5536 5536 5535 5535 5534 5533 5531 5530 5528 5527 5526 5524 5522 5521 5519 5517 5516 5513 5511 5509 5507 5504 5501 5498 5495
5519 5521 5522 5524 5525 5526 5526 5527 5528 5528 5528 5528 5528 5528 5528 5528 5528 5528 5527 5527 5527 5526 5525 5525 5524 5523 5522 5521 5520 5518 5517 5516 5514 5513 5511 5509 5507 5505 5503 5501 5499 5496 5494
5510 5511 5513 5514 5516 5516 5517 5518 5518 5518 5519 5519 5519 5519 5519 5519 5519 5519 5519 5519 5518 5518 5518 5517 5517 5516 5515 5514 5514 5513 5512 5511 5510 5508 5507 5506 5504 5502 5500 5498 5496 5494 5492
5500 5502 5504 5505 5506 5507 5508 5509 5509 5510 5510 5510 5511 5511 5511 5511 5511 5511 5511 5511 5511 5511 5511 5511 5510 5510 5509 5508 5508 5508 5507 5506 5505 5504 5503 5502 5501 5499 5498 5496 5494 5492 5490
5491 5493 5495 5496 5497 5498 5499 5500 5501 5501 5502 5502 5503 5503 5503 5504 5504 5504 5504 5504 5505 5505 5505 5505 5504 5504 5504 5503 5503 5503 5503 5502 5502 5501 5500 5499 5498 5497 5495 5494 5492 5491 5489
5483 5484 5486 5487 5489 5490 5491 5492 5493 5494 5494 5495 5496 5496 5497 5497 5497 5497 5498 5498 5498 5499 5499 5499 5499 5499 5499 5499 5499 5499 5499 5498 5498 5497 5497 5496 5495 5495 5494 5492 5491 5489 5488
5474 5476 5477 5479 5481 5482 5483 5484 5485 5486 5487 5488 5489 5489 5490 5490 5491 5491 5491 5492 5492 5493 5493 5493 5494 5494 5494 5494 5494 5495 5495 5495 5494 5494 5494 5494 5493 5493 5492 5491 5490 5489 5487
5466 5468 5470 5471 5473 5475 5476 5477 5478 5479 5480 5481 5482 5483 5484 5484 5485 5485 5486 5486 5487 5487 5488 5488 5489 5489 5490 5490 5490 5491 5491 5491 5491 5492 5492 5492 5491 5491 5490 5490 5489 5488 5487